Regional Weather Roundup
Issued by NWS

Home | Current Version | Previous Version | Graphics & Text | Print | Product List | Glossary On
Versions: 1 2 3 4 5 6 7 8 9 10 11 12 13 14 15 16 17 18 19 20 21 22 23 24 25 26 27 28 29 30 31 32 33 34 35 36 37 38 39 40 41 42 43 44 45 46 47 48 49 50
000
ASUS43 KMPX 232301
RWRMN
WEATHER ROUNDUP FOR MINNESOTA
NATIONAL WEATHER SERVICE TWIN CITIES/CHANHASSEN MN
600 PM CDT WED APR 23 2014


NOTE: "FAIR" INDICATES FEW OR NO CLOUDS BELOW 12,000 FEET WITH NO
SIGNIFICANT WEATHER AND/OR OBSTRUCTIONS TO VISIBILITY. N/A MEANS
CURRENT SKY AND/OR WEATHER CONDITIONS ARE NOT AVAILABLE.

MNZ060>063-068>070-240000-
   Twin Cities Metro

CITY           SKY/WX    TMP DP  RH WIND       PRES   REMARKS
TWIN CITIES    LGT RAIN  41  37  86 E16       29.95F
ST PAUL        LGT RAIN  42  37  82 SE9       29.98F
CRYSTAL        LGT RAIN  42  36  79 E12       29.95S
BLAINE         LGT RAIN  43  39  87 E14       29.95
EDEN PRAIRIE   CLOUDY    42  36  79 E13       29.93F
LAKEVILLE      CLOUDY    39  36  87 SE14      29.94R
SOUTH ST PAUL  LGT RAIN  44  38  79 SE10G17   29.96F
LAKE ELMO      LGT RAIN  41  37  87 E12       29.97F
$$
MNZ001>005-007-008-013>017-022>024-027-028-240000-
   Northwest Minnesota

CITY           SKY/WX    TMP DP  RH WIND       PRES   REMARKS
BEMIDJI        DRIZZLE   39  35  86 SE15G21   29.92S
HALLOCK        DRIZZLE   45  41  87 SE14      29.87S
ROSEAU         CLOUDY    54  27  35 SE14G23   29.89S
WARROAD        CLOUDY    54  30  40 SE10      29.90S
THIEF RVR FALL CLOUDY    43  37  81 SE15      29.89S
CROOKSTON      LGT RAIN  41  41 100 S16       29.89S
FOSSTON        LGT RAIN  39  37  93 SE12G23   29.91R
DETROIT LAKES  LGT RAIN  37  36  93 SE18G26   29.88S
MOORHEAD       DRIZZLE   45  43  93 SE20G29   29.84R
PARK RAPIDS    LGT RAIN  37  35  92 SE12      29.92S FOG
$$
MNZ006-009>011-018-025>026-240000-
   North Central Minnesota

CITY           SKY/WX    TMP DP  RH WIND       PRES   REMARKS
BAUDETTE       CLOUDY    55  24  30 SE10G17   29.91S
FLAG ISLAND    CLOUDY    52  23  32 E9        29.91S
INTL FALLS     CLOUDY    54  23  30 SE15G22   29.95S
WASKISH        CLOUDY    52  25  35 SE14G20   29.92S
BIG FORK       CLOUDY    52  23  32 SE12G18   29.95F
LONGVILLE      LGT RAIN  39  36  87 SE5       29.95F
GRAND RAPIDS   CLOUDY    48  21  34 SE12G18   29.96F
CRANE LAKE     CLOUDY    55  19  24 E5        29.99F
ORR            CLOUDY    52  16  24 SE9       29.96R
COOK           CLOUDY    52  21  30 SE9       29.99S
$$
MNZ012-019>021-037-240000-
   Northeast Minnesota

CITY           SKY/WX    TMP DP  RH WIND       PRES   REMARKS
DULUTH         CLOUDY    44  24  45 E10       30.00S
ELY            CLOUDY    48  16  27 SE9       30.01S
HIBBING        CLOUDY    50  23  34 SE9       29.98F
EVELETH        CLOUDY    50  23  34 SE8       30.00F
DULUTH HARBOR  CLOUDY    36  30  80 CALM      30.04S
TWO HARBORS    CLOUDY    43  25  49 E12       30.01S
SILVER BAY     CLOUDY    39  28  65 NE8       30.03F
GRAND MARAIS     N/A     40  29  64 NE6       30.09F
G MARAIS ARPRT CLOUDY    41  16  36 E7        30.07S
$$
MNZ029>031-032-039>041-046>048-054>057-064-240000-
   West Central Minnesota

CITY           SKY/WX    TMP DP  RH WIND       PRES   REMARKS
FERGUS FALLS   CLOUDY    41  36  81 SE26      29.79F
WHEATON        CLOUDY    45  39  81 E26G36    29.80S
MORRIS         CLOUDY    43  36  75 SE24G31   29.81S
ALEXANDRIA     CLOUDY    40  37  89 E16G29    29.87F
ELBOW LAKE     CLOUDY    41  36  82 SE23G31   29.83S
WADENA         LGT RAIN  36  34  93 E14       29.90S
GLENWOOD       CLOUDY    39  37  93 E17G26    29.87S
APPLETON       CLOUDY    45  36  70 SE20G30   29.80F
BENSON         CLOUDY    43  36  75 SE17G30   29.82F
ORTONVILLE     CLOUDY    43  36  75 SE26G32   29.77S
MADISON        CLOUDY    48  39  71 SE28G37   29.78F
WILLMAR        PTSUNNY   43  36  75 E23G31    29.84F
$$
MNZ033>034-036-042>043-049>051-058-059-240000-
   Central Minnesota

CITY           SKY/WX    TMP DP  RH WIND       PRES   REMARKS
ST CLOUD       RAIN      41  37  86 SE10G16   29.95S FOG
SAUK CENTRE    CLOUDY    39  37  92 E17G23    29.89F
PAYNESVILLE    CLOUDY    40  36  86 E16       29.89F
AITKIN         RAIN      45  34  65 SE9       29.96F
PINE RIVER     RAIN      36  36 100 SE10      29.99S
BRAINERD       LGT RAIN  43  35  73 SE12G18   29.95F
STAPLES        RAIN      34  34 100 E7        29.93S WCI  28
LONG PRAIRIE   CLOUDY    37  36  93 E13G18    29.91F
LITTLE FALLS   MIX PCPN  36  36 100 E14G22    29.94F
LITCHFIELD     DRIZZLE   43  39  87 E20       29.90F
BUFFALO        CLOUDY    41  36  83 E13       29.94F
MAPLE LAKE     CLOUDY    41  38  89 E10G20    29.93F
$$
MNZ037-044-045-052-053-240000-
   East Central Minnesota

CITY           SKY/WX    TMP DP  RH WIND       PRES   REMARKS
PRINCETON      LGT RAIN  41  37  87 E8G17     29.96F
MORA           RAIN      37  32  81 S7        30.01R
CAMBRIDGE      RAIN      43  34  70 E7        29.96F
RUSH CITY      CLOUDY    41  36  81 S8        29.99F
MOOSE LAKE     CLOUDY    50  27  40 SE3       29.97S
HINCKLEY       CLOUDY    48  28  46 SE7G17    29.98S
CLOQUET        CLOUDY    43  23  45 E10G16    30.00S
MCGREGOR       CLOUDY    48  27  43 SE9       29.98F
$$
MNZ071>073-080-081-089-090-097-098-240000-
   Southwest Minnesota

CITY           SKY/WX    TMP DP  RH WIND       PRES   REMARKS
MONTEVIDEO     CLOUDY    43  37  81 S24       29.82S
GRANITE FALLS  CLOUDY    44  35  69 E22G29    29.83S
CANBY          CLOUDY    47  38  72 SE26G33   29.77S
MARSHALL       CLOUDY    48  36  61 SE24G31   29.76F
REDWOOD FALLS  CLOUDY    45  35  68 SE21G31   29.82F
OLIVIA         CLOUDY    43  36  75 E21G29    29.82F
PIPESTONE      PTSUNNY   54  39  58 SE25G33   29.70R
WINDOM         CLOUDY    46  37  71 SE24G33   29.80R
WORTHINGTON    PTSUNNY   50  34  53 SE30G39   29.77F
JACKSON        CLOUDY    46  36  66 SE25G36   29.80R
TRACY          CLOUDY    48  38  69 SE21G30   29.78F
SLAYTON        PTSUNNY   47  37  69 SE25      29.76F
$$
MNZ065>067-074>077-082>085-091>093-240000-
   South Central Minnesota

CITY           SKY/WX    TMP DP  RH WIND       PRES   REMARKS
MANKATO        CLOUDY    45  36  70 SE20G28   29.89
NEW ULM        CLOUDY    45  36  70 SE21G31   29.84F
ST JAMES       CLOUDY    46  37  71 E24G31    29.83S
FAIRMONT       CLOUDY    45  36  70 SE29      29.83F
GLENCOE        CLOUDY    42  35  77 E17       29.90F
FARIBAULT      CLOUDY    45  34  65 E12       29.93F
OWATONNA       CLOUDY    46  34  61 SE15      29.93S
WASECA         CLOUDY    43  32  65 SE20      29.92F
ALBERT LEA     CLOUDY    45  36  70 SE18      29.91F
$$
MNZ078>079-086>088-094>096-240000-
   Southeast Minnesota

CITY           SKY/WX    TMP DP  RH WIND       PRES   REMARKS
ROCHESTER      CLOUDY    47  29  49 SE17G28   29.94F
RED WING       LGT RAIN  43  37  81 E12G20    29.96F
STANTON        DRIZZLE   42  35  75 E15G22    29.93S
DODGE CENTER   LGT RAIN  46  32  57 SE16      29.94R
WINONA         CLOUDY    43  37  81 SE14      30.01F
AUSTIN         DRIZZLE   45  36  70 SE9       29.94F
PRESTON        CLOUDY    47  32  55 SE14G22   29.96S
$$
ABBREVIATIONS USED IN REMARKS
   TC - TEMPERATURES IN CELSIUS
  WCI - WIND CHILL INDEX
   HX - HEAT INDEX
  VSB - VISIBILITY
$$


USA.gov is the U.S. government's official web portal to all federal, state and local government web resources and services.